Location: Balaclava NSW 2575, Australia
(34.4510°S, 150.4953°E)
Time: 23:49:28
(UTC+10:00)

Vanguard 2 Rocket - Visible Passes

Search period start: 22 June 2021 00:00
Search period end: 02 July 2021 00:00
Orbit: 554 x 3326 km, 32.9° (Epoch: 21 June)

Date Brightness Start Highest point End Pass type
(mag) Time Alt. Az. Time Alt. Az. Time Alt. Az.
23 Jun 7.8 06:09:18 10° NW 06:12:49 31° NNE 06:16:57 10° E visible
24 Jun 8.3 05:10:49 10° NNW 05:13:41 19° NNE 05:16:35 10° ENE visible
25 Jun 8.9 04:15:01 11° NE 04:15:01 11° NE 04:15:37 10° NE visible
25 Jun 6.9 06:22:52 10° WNW 06:26:41 47° NNE 06:31:12 10° E visible
26 Jun 7.4 05:25:00 17° NW 05:27:31 32° NNE 05:31:12 10° E visible
27 Jun 8.2 04:29:04 20° NE 04:29:04 20° NE 04:31:22 10° ENE visible
27 Jun 6.4 06:36:45 10° WNW 06:40:40 65° N 06:45:18 10° E visible
28 Jun 6.6 05:38:54 20° NW 05:41:27 49° NNE 05:45:26 10° E visible
29 Jun 7.3 04:42:51 34° NE 04:42:51 34° NE 04:45:53 10° E visible
30 Jun 6.1 05:52:34 18° WNW 05:55:28 66° N 05:59:33 10° E visible
01 Jul 6.5 04:56:26 53° NNE 04:56:26 53° NNE 05:00:06 10° E visible
